Regional Weather Roundup
Issued by NWS

Home | Current Version | Previous Version | Text Only | Print | Product List | Glossary Off
Versions: 1 2 3 4 5 6 7 8 9 10 11 12 13 14 15 16 17 18 19 20 21 22 23 24 25 26 27 28 29 30 31 32 33 34 35 36 37 38 39 40 41 42 43 44 45 46 47 48 49 50

000
ASUS43 KIND 261459
RWRIN

WEATHER ROUNDUP FOR INDIANA
NATIONAL WEATHER SERVICE INDIANAPOLIS IN
1000 AM EST FRI DEC 26 2014

NOTE: "FAIR" INDICATES FEW OR NO CLOUDS BELOW 12,000 FEET WITH NO
SIGNIFICANT WEATHER AND/OR OBSTRUCTIONS TO VISIBILITY.

* - STATION DOES NOT REPORT WEATHER SUCH AS PRECIPITATION OR FOG.

+ - STATION NOT QUALITY CONTROLLED BY THE NATIONAL WEATHER SERVICE.
    USE DATA WITH CAUTION...ESPECIALLY DEWPOINT AND RELATIVE
    HUMIDITY OBSERVATIONS.

INZ001>003-010>013-019-020-261600-
NORTHWEST INDIANA

CITY           SKY/WX    TMP DP  RH WIND       PRES   REMARKS
KNOX *+        SUNNY     37  31  77 S9        30.08S
VALPARAISO     NOT AVBL

$$

LMZ046-743>745-261600-
SOUTHERN LAKE MICHIGAN

STATION/POSITION TIME  TEMP WIND        PRES
                       AIR  DIR/SP/G
                 (UTC) (F)  (DEG/KT/KT) (MB)
MICHIGAN CITY    1400   38  160/ 17/ 24   N/A

$$

INZ004-005-014>016-021>024-261600-
NORTH CENTRAL INDIANA

CITY           SKY/WX    TMP DP  RH WIND       PRES   REMARKS
ELKHART        SUNNY     37  30  75 SW9       30.10R
GOSHEN         SUNNY     39  33  79 S12       30.10R
SOUTH BEND     SUNNY     39  33  79 SW13      30.09R
WARSAW +       SUNNY     37  34  87 S8        30.11R

$$

INZ006>009-017-018-025>027-261600-
NORTHEAST INDIANA

CITY           SKY/WX    TMP DP  RH WIND       PRES   REMARKS
ANGOLA *+      SUNNY     36  25  64 S10       30.11R
FORT WAYNE     MOSUNNY   38  33  82 S10       30.14S

$$

INZ028-029-035-036-043>045-051>053-261600-
WEST CENTRAL INDIANA

CITY           SKY/WX    TMP DP  RH WIND       PRES   REMARKS
GREENCASTLE +  SUNNY     41  32  70 S9        30.16R
LAFAYETTE      SUNNY     39  34  82 S7        30.12R
TERRE HAUTE    SUNNY     40  35  83 S14       30.16S

$$

INZ030>032-037>040-046>048-054>057-064-065-261600-
CENTRAL INDIANA

CITY           SKY/WX    TMP DP  RH WIND       PRES   REMARKS
ANDERSON       SUNNY     37  32  81 S16       30.17R
CP ATTERBURY + SUNNY     37  34  87 MISG      30.20R
FRANKFORT +    SUNNY     39  35  86 S12       30.14R
INDIANAPOLIS   MOSUNNY   38  34  85 S10       30.16R
-EAGLE CREEK   SUNNY     38  34  85 S7        30.16R
KOKOMO *+      SUNNY     39  34  81 SW14      30.13R
MT COMFORT *+  SUNNY     37  34  87 S10       30.18R
SHELBYVILLE    SUNNY     38  33  82 S14       30.19R

$$

INZ033-034-041-042-049-050-058-059-261600-
EAST CENTRAL INDIANA

CITY           SKY/WX    TMP DP  RH WIND       PRES   REMARKS
MUNCIE         SUNNY     39  33  79 S14G21    30.16R

$$

INZ060-061-067>069-081>083-085>088-261600-
SOUTHWEST INDIANA

CITY           SKY/WX    TMP DP  RH WIND       PRES   REMARKS
EVANSVILLE     SUNNY     44  36  73 S8        30.22S
HUNTINGBURG *+ SUNNY     43  36  75 S12       30.23R

$$

INZ062-063-066-070>080-084-089>092-261600-
SOUTH CENTRAL AND SOUTHEAST INDIANA

CITY           SKY/WX    TMP DP  RH WIND       PRES   REMARKS
BLOOMINGTON    SUNNY     41  35  79 S9        30.18R

$$




USA.gov is the U.S. government's official web portal to all federal, state and local government web resources and services.